User: anonymous   Login
Location: NJAA Observatory
(40.6819°N, 74.8979°W)
Time: 04:23:08
(UTC-04:00)
Language:

Cosmos 2263 Rocket - Orbit

View from above orbital plane
View from above orbital plane
View from above satellite
View from above satellite

Ground track
Ground track

The orbit data is extracted from the following two-line orbital elements,

1 22803U 93059B   17116.89649672 -.00000046 +00000-0 +83465-6 0  9991
2 22803 070.9920 357.5192 0015054 105.9313 254.3471 14.16771042220769
Epoch (UTC): 26 April 2017 21:30:57
Eccentricity: 0.0015054
inclination: 70.9920°
perigee height: 825 km
apogee height: 847 km
right ascension of ascending node: 357.5192°
argument of perigee: 105.9313°
revolutions per day: 14.16771042
mean anomaly at epoch: 254.3471°
orbit number at epoch: 22076

The dashed part of the orbit path shows where the satellite is in the earth's shadow,  

DLR